Welcome to the New NWS' Forecast!
Most changes are behind the scenes, but click here for differences you might notice.
Latest weather observations around

Joplin, Joplin Regional Airport (KJLN)

Using English Units (Switch to International System of Units)
Date/ Time (CDT) Wind (mph) Vis. (mi) Weather Sky Cond. Temp (°F) Rel. Humidity Wind Chill (°F) Heat Index (°F) Pressure Precip. (in)
Air Dwpt 6 hour Altimeter (inHg) Sea level (inHg) 1 hr 3 hr 6 hr
Max Min
Sep 22 05:53 N 6 10 Clear CLR 59 56     90%     30.2 30.18      
Sep 22 04:53 ENE 5 10 Clear CLR 59 56     90%     30.19 30.17      
Sep 22 03:53 E 5 10 Clear CLR 60 56     86%     30.19 30.16   0  
Sep 22 02:53 N 7 10 Clear CLR 60 56     86%     30.19 30.17      
Sep 22 01:53 NE 7 10 Partly Cloudy SCT050 61 56     83%     30.2 30.18 0    
Sep 22 00:53 NNE 8 10 Light Rain CLR 60 57     90%     30.2 30.18 0   0
Sep 21 23:53 NNE 7 10 Light Rain CLR 61 57     87%     30.21 30.19 0    
Sep 21 22:53 NE 8 10 Light Rain BKN120 62 58     86%     30.21 30.19 0    
Sep 21 21:53 NNE 7 10 Mostly Cloudy BKN120 63 58     84%     30.21 30.19 0 0  
Sep 21 20:53 NE 5 10 Light Rain OVC100 63 59     87%     30.19 30.17 0    
Sep 21 19:53 NNE 5 10 Mostly Cloudy SCT100 BKN120 65 58     78%     30.18 30.16      
Sep 21 18:53 N 5 10 Cloudy BKN095 OVC110 67 58     73%     30.17 30.15     0
Sep 21 17:53 N 3 10 Cloudy OVC110 69 61     75%     30.16 30.13 0    
Sep 21 16:53 N 3 10 Cloudy FEW023 SCT090 OVC110 70 61     73%     30.14 30.11 0    
Sep 21 15:53 NNE 5 10 Light Rain OVC110 72 68     87%   73 30.14 30.11 0 0  
Sep 21 14:53 NNE 6 10 Mostly Cloudy BKN095 74 67     79%   75 30.14 30.11      
Sep 21 13:53 NE 6 10 Mostly Cloudy FEW019 SCT024 BKN030 74 67     79%   75 30.14 30.11      
Sep 21 13:51 NE 7 10 Mostly Cloudy SCT021 BKN030 73 66     78%   74 30.14        
Sep 21 12:53 N 13 10 Cloudy OVC023 74 66     76%   75 30.13 30.1      
Sep 21 12:16 N 10 10 Mostly Cloudy BKN023 74 67     79%   75 30.12        
Sep 21 11:53 N 13 10 Mostly Clear FEW021 74 67     79%   75 30.11 30.08      
Sep 21 10:53 NNE 8 10 Clear CLR 75 67     76%   76 30.11 30.07      
Sep 21 09:53 Calm 10 Clear CLR 74 68     82%   75 30.1 30.06      
Sep 21 08:53 SE 6 10 Clear CLR 71 67     87%   72 30.08 30.05      
Sep 21 07:53 E 6 10 Mostly Clear FEW080 69 67     93%     30.06 30.03      
Sep 21 06:53 NE 5 10 Cloudy BKN055 BKN070 OVC080 69 67     93%     30.06 30.03 0   0
Sep 21 06:21 ENE 5 10 Cloudy SCT016 BKN041 OVC055 70 67     90%     30.07   0    
Sep 21 06:03   8 Thunderstorms BKN055 70 66     88%     30.08        
Sep 21 05:48 NNE 6 10 Thunderstorms BKN041 BKN055 OVC070 69 67     93%     30.06 30.02 0    
Sep 21 05:47 NNE 6 10 Thunderstorms and Rain BKN041 BKN049 OVC070 70 66     88%     30.06   0    
Sep 21 05:41 NNE 5 2.5 Light Rain and Fog/Mist BKN041 BKN048 OVC070 70 67     90%     30.06   0    
Sep 21 04:53 N 13 10 Cloudy BKN037 BKN047 OVC070 73 65     76%   74 30.05 30.01      
Sep 21 03:53 W 6 10 Partly Cloudy SCT042 76 69     79%   77 30.01 29.97      
Sep 21 02:53 SW 8 10 Clear CLR 78 68     71%   79 29.96 29.92      
Sep 21 01:53 SSW 9 10 Clear CLR 79 68     69%   80 29.95 29.91      
Sep 21 00:53 S 13 10 Clear CLR 79 68     69%   80 29.94 29.89      
Sep 20 23:53   10 Clear CLR 81 68     65%   84 29.93 29.89      
Sep 20 22:53 S 13 10 Clear CLR 80 68     67%   83 29.93 29.89      
Sep 20 21:53 S 13 10 Clear CLR 81 69     67%   84 29.91 29.87      
Sep 20 20:53 S 11 10 Clear CLR 82 69     65%   85 29.89 29.85      
Sep 20 19:53 S 9 10 Clear CLR 83 70     65%   87 29.87 29.84      
Sep 20 17:53   10 Clear CLR 88 71     57%   94 29.86 29.82      
Sep 20 16:53 S 11 10 Clear CLR 89 70     53%   94 29.87 29.83      
Sep 20 15:53 SSW 14 10 Clear CLR 91 70     50%   97 29.88 29.84      
Sep 20 14:53 S 16 10 Partly Cloudy SCT050 91 71     52%   98 29.9 29.86      
Sep 20 13:53 S 15 10 Mostly Clear FEW047 90 72     56%   97 29.93 29.89      
Sep 20 12:53 S 13 10 Partly Cloudy SCT042 90 73     58%   98 29.95 29.91      
Sep 20 11:53 SSW 13 10 Clear CLR 87 72     61%   94 29.97 29.93      
Sep 20 10:53 S 13 10 Clear CLR 85 73     68%   92 29.97 29.93      
Sep 20 09:53 S 10 9 Clear CLR 83 73     72%   89 29.98 29.94      
Sep 20 08:53 S 10 7 Clear CLR 80 72     76%   84 29.97 29.93      
Sep 20 07:53 S 8 8 Haze CLR 77 71     82%   78 29.96 29.93      
Sep 20 06:53 S 9 8 Clear CLR 75 71     88%   76 29.96 29.92      
Sep 20 05:53 S 5 8 Clear CLR 75 70     84%   76 29.94 29.9      
Sep 20 04:53 SSE 7 9 Clear CLR 75 70     84%   76 29.93 29.89      
Sep 20 03:53 S 8 9 Clear CLR 77 70     79%   78 29.93 29.89      
Sep 20 02:53 S 9 10 Clear CLR 78 70     76%   79 29.94 29.9      
Sep 20 01:53 S 14 10 Clear CLR 79 70     74%   82 29.93 29.89      
Sep 20 00:53 S 10 10 Clear CLR 80 70     71%   83 29.94 29.9      
Sep 19 23:53 SSE 9 10 Clear CLR 81 70     69%   84 29.94 29.89      
Sep 19 22:53 S 11 10 Clear CLR 82 69     65%   85 29.93 29.89      
Sep 19 21:53 S 11 10 Clear CLR 83 68     61%   86 29.92 29.88      
Sep 19 20:53 SSE 8 10 Clear CLR 83 69     63%   87 29.91 29.88      
Sep 19 19:53 5 10 Clear CLR 83 71     67%   88 29.9 29.86      
Sep 19 18:53 3 10 Clear CLR 87 70     57%   92 29.89 29.85      
Sep 19 17:53 S 9 10 Mostly Clear FEW060 90 69     50%   95 29.89 29.85      
Sep 19 16:53 S 9 10 Mostly Clear FEW065 91 70     50%   97 29.9 29.86      
Sep 19 15:53 S 7 10 Mostly Cloudy SCT055 BKN070 91 72     54%   99 29.92 29.88      
Sep 19 14:53 SSW 8 10 Clear CLR 91 71     52%   98 29.94 29.9      
Sep 19 13:53 S 10 10 Mostly Clear FEW047 91 72     54%   99 29.96 29.92      
Sep 19 12:53 S 8 10 Partly Cloudy SCT043 90 73     58%   98 29.99 29.95      
Sep 19 11:53 SSW 13 10 Clear CLR 88 72     59%   95 30 29.96      
Sep 19 10:53 SSW 8 10 Clear CLR 86 73     65%   93 30.01 29.97      
Sep 19 07:53 S 7 9 Clear CLR 75 71     88%   76 29.98 29.94      
Sep 19 06:53 S 7 9 Clear CLR 73 70     90%   74 29.97 29.93      
Sep 19 05:53 S 7 10 Clear CLR 74 70     87%   75 29.96 29.92      
Sep 19 04:53 S 7 10 Clear CLR 74 70     87%   75 29.95 29.91      
Sep 19 03:53 S 7 10 Clear CLR 74 70     87%   75 29.94 29.9      
Sep 19 02:53 S 8 10 Clear CLR 75 70     84%   76 29.94 29.9      
Sep 19 01:53 S 7 10 Clear CLR 76 70     82%   77 29.94 29.9      
Sep 19 00:53 S 7 10 Clear CLR 77 70     79%   78 29.94 29.9      
Sep 18 23:53 SSE 5 10 Clear CLR 78 70     76%   79 29.94 29.9      
Sep 18 22:53 SE 6 10 Clear CLR 80 71     74%   84 29.94 29.9      
Sep 18 21:53 SE 6 10 Clear CLR 79 71     77%   82 29.94 29.9      
Sep 18 20:53 SE 5 10 Clear CLR 81 71     72%   85 29.93 29.89      
Sep 18 19:53 Calm 10 Clear CLR 82 71     69%   86 29.92 29.88      
Sep 18 18:53 S 5 10 Clear CLR 87 70     57%   92 29.91 29.87      
Sep 18 17:53 S 7 10 Clear CLR 89 70     53%   94 29.9 29.86      
Sep 18 16:53 SSW 8 10 Clear CLR 90 70     52%   95 29.91 29.87      
Sep 18 15:53 SW 9 10 Clear CLR 90 72     56%   97 29.93 29.89      
Sep 18 14:53 SSW 10 10 Mostly Clear FEW047 90 72     56%   97 29.94 29.9      
Sep 18 13:53 S 11 10 Mostly Clear FEW043 89 73     59%   97 29.96 29.92      
Sep 18 12:53 SW 10 10 Clear CLR 89 72     57%   96 29.98 29.95      
Sep 18 10:53 SW 8 10 Mostly Cloudy BKN075 84 72     67%   90 30.02 29.98      
Sep 18 09:53 SSW 8 10 Clear CLR 82 71     69%   86 30.02 29.98      
Sep 18 08:53 S 5 10 Clear CLR 78 68     71%   79 30.01 29.98      
Sep 18 07:53 S 6 10 Clear CLR 73 67     81%   74 30.01 29.98      
Sep 18 06:53 S 3 10 Clear CLR 72 66     82%   73 30 29.96      
Sep 18 05:53 S 6 9 Clear CLR 71 67     87%   72 29.99 29.95      
Sep 18 04:53 S 5 9 Clear CLR 70 67     90%     29.99 29.95      
Sep 18 03:53 SSE 5 10 Clear CLR 73 68     84%   74 29.99 29.95      
Sep 18 02:53 SE 3 10 Clear CLR 73 68     84%   74 29.99 29.95      
Sep 18 01:53 SSE 5 10 Clear CLR 74 69     85%   75 29.99 29.95      
Sep 18 00:53 SSE 7 10 Clear CLR 74 69     85%   75 30 29.96      
Sep 17 23:53 SSE 3 10 Clear CLR 74 70     87%   75 29.99 29.95      
Sep 17 22:53 Calm 10 Clear CLR 76 70     82%   77 29.99 29.96      
Sep 17 21:53 Calm 10 Clear CLR 75 71     88%   76 29.98 29.95      
Sep 17 20:53 E 3 10 Clear CLR 75 70     84%   76 29.97 29.94      
Sep 17 19:53 Calm 10 Clear CLR 79 68     69%   80 29.95 29.92      
Sep 17 18:53 N 6 10 Clear CLR 85 70     61%   89 29.94 29.91      
Sep 17 17:53 W 7 10 Clear CLR 88 69     54%   92 29.95 29.91      
Sep 17 16:53 W 6 10 Clear CLR 89 69     52%   94 29.95 29.92      
Sep 17 15:53 5 10 Clear CLR 89 69     52%   94 29.96 29.92      
Sep 17 14:53 Calm 10 Clear CLR 89 69     52%   94 29.97 29.93      
Sep 17 13:53 3 10 Mostly Clear FEW050 90 69     50%   95 29.99 29.95      
Sep 17 12:53 Calm 10 Clear CLR 88 67     50%   91 30.01 29.97      
Sep 17 11:53 Calm 10 Clear CLR 88 68     52%   92 30.02 29.98      
Sep 17 10:53 Calm 10 Clear CLR 84 71     65%   89 30.03 30      
Sep 17 09:53 Calm 10 Clear CLR 81 70     69%   84 30.02 29.99      
Sep 17 08:53 Calm 10 Clear CLR 75 68     79%   76 30.01 29.98      
Sep 17 07:53 Calm 7 Clear CLR 68 66     93%     30 29.98      
Sep 17 06:53 Calm 8 Clear CLR 65 64     97%     29.99 29.96      
Sep 17 05:53 Calm 7 Clear CLR 65 64     97%     29.98 29.94      
Sep 17 04:53 Calm 7 Clear CLR 65 65     100%     29.97 29.94      
Sep 17 04:44 Calm 3 Fog/Mist CLR 65 64     97%     29.97        
Sep 17 04:37 Calm 1.75 Fog/Mist CLR 65 64     97%     29.97        
Sep 17 03:53 Calm 8 Clear CLR 66 65     96%     29.97 29.94      
Sep 17 02:53 Calm 10 Clear CLR 67 66     97%     29.98 29.95      
Sep 17 01:53 Calm 8 Clear CLR 67 66     97%     29.98 29.95      
Sep 17 00:53 Calm 10 Clear CLR 67 66     97%     29.98 29.95      
Sep 16 23:53 Calm 10 Clear CLR 69 67     93%     29.99 29.95      
Sep 16 22:53 ESE 3 10 Clear CLR 70 67     90%     29.99 29.96      
Sep 16 21:53 Calm 10 Clear CLR 70 68     93%     29.99 29.96      
Sep 16 20:53 Calm 10 Clear CLR 72 67     84%   73 29.98 29.95      
Sep 16 19:53 NNE 6 10 Clear CLR 74 68     82%   75 29.97 29.94      
Sep 16 18:53 ENE 7 10 Clear CLR 84 67     57%   87 29.97 29.93      
Sep 16 17:53 NNE 7 10 Partly Cloudy SCT055 87 67     51%   90 29.97 29.93      
May 15 06:53 NNW 6 10 Clear CLR 61 60     97%     29.92 29.89     1
May 14 05:53 S 10 10 Clear CLR 69 63     81%     29.95 29.92      
May 13 10:53   10 Clear CLR 80 68     67%   83 30.03 30      
May 12 18:53 S 17 10 Clear CLR 81 65     58%   83 29.91 29.88      
May 12 08:53 S 11 10 Clear CLR 74 64     71%   74 29.96 29.93      
May 12 00:53 SSE 8 10 Clear CLR 70 61     73%     29.89 29.86      
Jun 12 01:53 S 9 10 Clear CLR 73 65     76%   74 29.92 29.88      
Jun 11 21:53 S 10 10 Clear CLR 79 65     62%   80 29.9 29.86      
Jun 11 11:53   10 Partly Cloudy SCT032 84 71     65%   89 29.94 29.9      
Jun 11 10:53   10 Clear CLR 83 70     65%   87 29.93 29.89      
Jun 10 19:53 S 15 10 Clear CLR 81 67     62%   83 29.83 29.79      
Jun 10 17:53   10 Clear CLR 85 68     57%   88 29.82 29.79      
Jun 10 11:53   10 Clear CLR 82 67     60%   85 29.9 29.86      
Jun 09 14:53 S 13 10 Partly Cloudy SCT055 80 61     52%   81 29.91 29.89      
Jun 09 00:53 SE 3 10 Clear CLR 60 55     83%     29.94 29.91      
Jun 08 23:53 S 3 10 Clear   62 56     80%     29.94 29.92      
Jun 08 12:53 WNW 5 10 Clear CLR 79 53     41%   78 30.05 30.03      
Jun 08 06:53 Calm 10 Clear CLR 56 53     90%     30.06 30.04      
Jun 07 21:53 Calm 10 Clear CLR 64 56     75%     30.05 30.02      
Jun 07 14:53 NNE 9 10 Clear CLR 81 52     37%   80 30.06 30.03      
Jun 07 11:53 E 9 10 Mostly Clear FEW060 79 49     35%   78 30.09 30.07      
Jun 06 11:53 N 5 10 Clear CLR 82 64     55%   84 29.96 29.93      
Jun 06 10:53 N 5 10 Clear CLR 79 66     65%   80 29.96 29.92      
Notice The following observation data may not be complete
Jun 06 04:02   2 Fog/Mist CLR          %              
Jun 05 19:53 Calm 10 Mostly Cloudy BKN075 84 70     63%   88 29.83 29.79